Location: Cluny
(50.9333°N, 112.8167°W)
Time: 07:30:21
(UTC-07:00)

Hamsat - Visible Passes

Search period start: 05 December 2016 00:00
Search period end: 15 December 2016 00:00
Orbit: 585 x 620 km, 97.6° (Epoch: 04 December)

Date Brightness Start Highest point End Pass type
(mag) Time Alt. Az. Time Alt. Az. Time Alt. Az.
08 Dec ? 16:58:23 10° SW 17:01:36 22° W 17:04:51 10° NW visible
09 Dec ? 17:10:53 10° SW 17:13:37 17° W 17:16:21 10° NW visible
10 Dec ? 17:23:40 10° WSW 17:25:38 13° W 17:27:37 10° WNW visible
